www.pogodaiklimat.ru

Погода и климат >> Архив погоды >> Россия >> Челябинская область >> Аргаяш


ПОГОДА в Аргаяше

  • Прогноз погоды в Аргаяше
  • Монитор погоды в Аргаяше

АРХИВ ПОГОДЫ в Аргаяше

Время (UTC), дата Ветер
(напр.,м/с)
 
Видим.   Явления Облачность Т
(С)
Тd
(С)
f
(%)
Тe
(С)
Тes
(С)
Комфортность P
(гПа)
Po
(гПа)
Тmin
(С)
Tmax
(С)
R
(мм)
R24
(мм)
S
(см)
00 18.08 Ю 1 4000 м дымка 8/8 600 м
[Sc]
+14.8 +14.8 100 +15 +15 1018.7 988.5
03 18.08 З 2 4000 м дымка 9/8 600 м
[Sc Ac cast]
+19.1 +17.8 92 +21 +22 комфорт 1018.6 988.8 +14.7
06 18.08 С 2 20 км 9/0
[Ac As Cc]
+23.7 +17.1 67 +28 +33 душно 1019.5 990.1
09 18.08 В 2 20 км 4/0
[Cc]
+27.6 +14.4 44 +30 +40 жарко 1018.8 989.9
12 18.08 С 2 20 км 9/1 600 м
[Cu med, cong Ac trans Cc]
+27.4 +12.7 40 +29 +31 жарко 1019.1 990.0
15 18.08 СЗ 3
{10}
10 км 10/10 600 м
[Cu Sc]
+22.9 +14.4 59 +27 +27 душно 1020.6 991.1 +29.1
18 18.08 С 1 10 км 9/9 600 м
[Sc]
+19.9 +15.1 74 +23 +23 комфорт 1022.7 992.9
21 18.08 штиль 0 10 км 9/9 600 м
[Sc]
+17.9 +14.9 83 +18 +18 1023.2 993.1
00 19.08 С 2 10 км 10/10 600 м
[Sc]
+17.3 +15.8 91 +18 +18 1024.6 994.4
03 19.08 СВ 2 4000 м дымка {ливн. осадки} 10/10 600 м
[Sc]
+16.6 +16.6 100 +17 +17 1025.8 995.6 +16.2
06 19.08 В 1 4000 м дымка {ливн. осадки} 10/10 300 м
[St]
+17.2 +16.1 93 +18 +18 1026.5 996.2
09 19.08 СВ 2 10 км 10/10 300 м
[St]
+18.6 +16.3 86 +20 +20 1026.2 996.2
12 19.08 В 1 20 км 9/3 600 м
[Cu Sc Ac cast Cc]
+20.5 +16.4 77 +25 +27 комфорт 1025.8 996.0
15 19.08 СВ 1 20 км 10/3 600 м
[Sc Ac und]
+19.5 +16.7 84 +23 +23 комфорт 1025.7 995.8 +22.4
18 19.08 В 1 10 км 10/0
[Ac und]
+18.5 +16.3 87 +20 +20 1025.2 995.2
21 19.08 В 1 10 км 9/3 600 м
[Cb cap Ac As]
+17.2 +15.7 91 +18 +18 1024.8 994.6
00 20.08 штиль 0 4000 м дымка 10/10 600 м
[Sc]
+15.6 +14.4 93 +15 +15 1024.5 994.1
03 20.08 ЮВ 2 10 км 10/3 600 м
[Sc Ac trans Cs]
+17.5 +15.1 86 +18 +19 1022.3 992.2 +15.4
06 20.08 ЮВ 2
{13}
4000 м в посл. час ливневой дождь 10/10 600 м
[Cb cap]
+18.3 +16.7 90 +19 +19 1021.4 991.4
09 20.08 Ю 4 10 км {ливн. осадки} 9/9 600 м
[Cb cap]
+20.8 +18.0 84 +25 +26 комфорт 1019.4 989.8
12 20.08 ЮЗ 3 20 км {ливн. осадки} 4/0
[Ac trans]
+24.9 +16.5 60 +28 +31 жарко 1016.8 987.6
15 20.08 штиль 0 20 км 5/5 600 м
[Sc]
+21.3 +16.7 75 +25 +25 комфорт 1015.8 986.3 +25.7 1
18 20.08 СВ 2 4000 м гроза, ливневой дождь 10/10 600 м
[Cb cap]
+19.3 +18.0 92 +22 +22 комфорт 1014.6 985.0
21 20.08 С 1 4000 м дымка {гроза, ливн. осадки} 9/6 600 м
[Cb cap Ac und]
+17.5 +16.5 94 +19 +19 1014.7 984.9
00 21.08 С 2 4000 м дымка {гроза, ливн. осадки} 9/9 300 м
[Cb cap]
+16.1 +15.0 93 +16 +16 1015.8 985.8
03 21.08 СВ 3 4000 м слаб. ливневой дождь 10/10 600 м
[Cb cap]
+15.8 +15.8 100 +15 +15 1017.5 987.4 +15.5 2
06 21.08 СВ 3 4000 м дымка {ливн. осадки} 10/10 300 м
[Cb cap]
+15.2 +14.2 94 +14 +14 1018.8 988.6 +14.8
09 21.08 В 4 20 км 4/3 600 м
[Cu hum Ac trans]
+20.8 +10.3 51 +23 +27 комфорт 1018.8 989.1
12 21.08 СВ 3 20 км 3/3 600 м
[Cu hum Ac trans]
+21.3 +9.0 45 +23 +25 комфорт 1019.1 989.5
15 21.08 В 2 20 км 3/1 600 м
[Sc diur, vesp Ci fib]
+18.1 +10.0 59 +19 +19 1020.1 990.1 +21.9
18 21.08 С 1 10 км ясно +12.9 +10.5 85 +13 +13 1021.6 991.0
21 21.08 ЮЗ 1 4000 м дымка 3/0
[Ac trans]
+6.9 +6.0 94 +6 +6 1022.3 991.0
00 22.08 З 1 4000 м дымка 9/8 600 м
[Cb cap Ac cast]
+8.5 +8.5 100 +8 +8 1023.1 992.1
03 22.08 З 1 4000 м дымка 9/9 600 м
[Cb cap]
+12.0 +11.4 96 +12 +12 1023.2 992.5 +5.7
06 22.08 С 2 20 км 10/3 600 м
[Cu med, cong Cc]
+18.7 +8.8 53 +20 +25 1022.2 992.2
09 22.08 С 3 20 км 10/1 600 м
[Cu hum Ac cuf Cs]
+20.9 +9.3 47 +23 +27 комфорт 1021.3 991.5
12 22.08 С 1 20 км 3/0
[Ci fib]
+22.2 +7.9 40 +23 +28 комфорт 1020.6 990.9
15 22.08 штиль 0 20 км 1/0
[Cc]
+16.9 +12.0 73 +17 +17 1020.9 990.8 +22.7
18 22.08 ЮЗ 1 10 км ясно +9.5 +8.5 93 +9 +9 1021.9 991.0
21 22.08 ЮЗ 1 4000 м дымка ясно +8.1 +8.1 100 +7 +7 1022.3 991.1
00 23.08 ЮЗ 1 4000 м дымка 1/1 600 м
[Sc]
+9.4 +9.4 100 +9 +9 1021.6 990.7
03 23.08 ЮЗ 1 4000 м дымка 10/0
[Cs]
+14.9 +14.2 96 +15 +17 1020.7 990.4 +7.5
06 23.08 З 3 20 км 8/0
[Ci]
+23.1 +12.2 50 +26 +32 жарко 1019.2 989.8
09 23.08 З 3 20 км 8/0
[Ci]
+25.4 +12.2 44 +27 +34 жарко 1017.9 988.7
12 23.08 З 4 20 км 1/1 600 м
[Cu hum]
+25.4 +12.5 45 +27 +30 жарко 1016.7 987.5
15 23.08 З 2 20 км 8/3 600 м
[Sc diur, vesp Ac lent Cc]
+22.6 +13.7 57 +26 +26 жарко 1016.8 987.3 +25.9
18 23.08 СЗ 3 10 км в посл. час ливневой дождь 6/6 600 м
[Cb cap]
+18.0 +16.1 89 +18 +18 1018.2 988.3
21 23.08 СЗ 2 10 км 8/0
[Ac lent Cs]
+14.7 +13.2 91 +14 +14 1019.8 989.5
00 24.08 З 2 10 км 8/0
[Ac lent Cs]
+12.5 +10.1 85 +12 +12 1020.7 990.1
03 24.08 СЗ 3 20 км 9/0
[Ac lent Cs]
+14.1 +10.0 76 +13 +14 1021.6 991.1 +11.9 1
06 24.08 СЗ 5 20 км 4/4 600 м
[Cu hum]
+17.7 +9.6 59 +17 +20 1021.2 991.1
09 24.08 СЗ 5
{10}
20 км 3/3 600 м
[Cu hum]
+19.9 +8.4 47 +21 +25 комфорт 1020.7 990.8
12 24.08 СЗ 4
{10}
20 км 4/4 600 м
[Cu med, cong]
+20.7 +7.5 42 +22 +23 комфорт 1020.7 990.9
15 24.08 З 2 20 км 4/4 600 м
[Cu Sc]
+15.9 +8.3 61 +16 +16 1020.4 990.1 +21.2
18 24.08 З 1 4000 м дымка ясно +6.5 +5.3 92 +5 +5 1021.4 990.1
21 24.08 З 2 4000 м дымка ясно +4.7 +4.0 95 +2 +2 1022.1 990.6

 

Местоположение метеостанции Аргаяш (Челябинская область, Россия): широта 55.55 долгота 60.90 высота над уровнем моря 256 м.

В архиве по умолчанию представлена погода в Аргаяше за последнюю неделю. Архивные данные за месяц целиком и за предыдущие месяцы, начиная с января 2011 года, Вы можете получить, выбрав интересующий диапазон дат из раскрывающегося списка и нажав кнопку "Ввод!".


*Определитесь, кто Вы:
робот инопланетянин человек

Внимание! Время в таблицах - всемирное. Для получения местного времени необходимо прибавить поправку, которая равна 5 ч.

Смотрите также архив погоды в соседних городах и на ближайших метеорологических станциях:

Погода в Челябинске (Челябинская область, Россия) (51 км)
Погода в Верхнем Уфалее (Челябинская область, Россия) (70 км)
Погода в Бродокалмаке (Челябинская область, Россия) (74 км)
Погода в Миассе (Челябинская область, Россия) (80 км)
Погода в Златоусте (Челябинская область, Россия) (89 км)
Погода в Нязепетровске (Челябинская область, Россия) (100 км)
Погода в Сысерти (Свердловская область, Россия) (106 км)
Погода в Каменск-Уральском (Свердловская область, Россия) (115 км)
Погода в Мирном (Челябинская область, Россия) (118 км)
Погода в Южноуральске (Челябинская область, Россия) (128 км)

Пояснения к столбцам:

Ветер - указаны скорость ветра в м/с - средняя за 10 мин, порывы в срок и между сроками (в фигурных скобках) и направление, откуда дует ветер: С - северный, СВ - северо-восточный, В - восточный, ЮВ - юго-восточный, Ю - южный, ЮЗ - юго-западный, З - западный, СЗ - северо-западный.
Видимость - горизонтальная дальность видимости в метрах или километрах. При видимости от 1 до 10 км при отсутствии осадков обычно наблюдается дымка, при ухудшении видимости до 1 км и менее - туман. В сухую погоду видимость может ухудшаться дымом, пылью или мглою.
Явления - указаны атмосферные явления, наблюдавшиеся в срок или в последний час перед сроком; фигурными скобками обозначены явления, наблюдавшиеся между сроками (за 1-3 часа до срока); квадратными скобками обозначены град или гололедные отложения с указанием их диаметра в мм.
Облачность - указаны через наклонную черту общая и нижняя облачность в баллах и высота нижней границы облаков в метрах; квадратными скобками обозначены формы облаков: Ci - перистые, Cs - перисто-слоистые, Cc - перисто-кучевые, Ac - высококучевые, As - высокослоистые, Sc - слоисто-кучевые, Ns - слоисто-дождевые, Cu - кучевые, Cb - кучево-дождевые. Подробнее классификацию облаков см. в Атласе облаков (PDF).
T - Температура воздуха - температура, измеренная на высоте 2 м над землей.
Td - Температура точки росы - температура, при понижении до которой содержащийся в воздухе водяной пар достигнет насыщения.
f - Относительная влажность воздуха - влажноcть воздуха, измеренная на высоте 2 м над землей.
Te - Эффективная температура - температура, которую ощущает одетый по сезону человек в тени. Характеристика душности погоды. При расчете учитывается влияние влажности воздуха и скорости ветра на теплоощущения человека.
Tes - Эффективная температура на солнце - температура, которую ощущает человек, с поправкой на солнечный нагрев. Характеристика знойности погоды. Зависит от высоты солнца над горизонтом, облачности и скорости ветра. Ночью, в пасмурную погоду, а также при ветре 12 м/с и более поправка равна нулю.
P - Атмосферное давление - приведенное к уровню моря атмосферное давление.
Po - Атмосферное давление - измеренное на уровне метеостанции атмосферное давление.
Tmin - Минимальная температура - минимум температуры воздуха на высоте 2 м над землей.
Tmax - Максимальная температура - максимум температуры воздуха на высоте 2 м над землей.
R - Количество осадков - Количество выпавших осадков за период времени, мм. При наведении курсора мыши на число - период времени, за который выпало указанное количество осадков.
R24 - Количество осадков - Количество выпавших осадков за 24 часа, мм.
S - Снежный покров - Высота снежного покрова, см. При наведении курсора мыши на число - состояние снежного покрова и степень покрытия местности в баллах.